Location: Saint-Usage
(47.1052°N, 5.2587°E)
Time: 11:03:19
(UTC+02:00)

Nauka - Pass Details

Date: 01 October 2021
Orbit: 417 x 423 km, 51.6° (Epoch: 19 October)

Event Time Altitude Azimuth Distance (km) Brightness Sun altitude
Rises 21:51:46 0° 291° (WNW) 2,366 ? -26.3°
Reaches altitude 10° 21:54:02 10° 279° (W) 1,499 ? -26.6°
Enters shadow 21:55:29 20° 260° (W) 1,044 ? -26.8°
